This demonstration page uses our WeatherBlox Daily Observations layout. Learn more.

41.55636, -103.73856

Hourly Observations for April 19, 2019

Temp ( °F °C ) Dew Point ( °F °C ) Humidity (%) Winds ( mph kmh ) Pressure ( in mb ) Visibility ( mi km ) Precip ( " mm )
12:53 am 00:53 Clear 33 0.6 24 -4.4 70 70 NNE 7 11 30.18 1022 10 16.09344 0 0
1:53 am 01:53 Clear 31 -0.6 23 -5 72 72 Calm 30.18 1022 10 16.09344 0 0
2:53 am 02:53 Mostly Clear 30 -1.1 23 -5 75 75 NE 5 7 30.18 1022 10 16.09344 0 0
3:53 am 03:53 Mostly Clear 32 0 25 -3.9 75 75 Calm 30.15 1021 10 16.09344 0 0
4:53 am 04:53 Clear 29 -1.7 23 -5 78 78 Calm 30.12 1020 10 16.09344 0 0
5:53 am 05:53 Clear 30 -1.1 25 -3.9 82 82 N 5 7 30.09 1019 10 16.09344 0 0
6:53 am 06:53 Sunny 30 -1.1 25 -3.9 82 82 NW 6 9 30.12 1020 10 16.09344 0 0
7:53 am 07:53 Mostly Sunny 40 4.4 27 -2.8 60 60 Calm 30.09 1019 10 16.09344 0 0
8:53 am 08:53 Sunny 48 8.9 31 -0.6 52 52 WNW 7 11 30.09 1019 10 16.09344 0 0
9:53 am 09:53 Sunny 57 13.9 34 1.1 42 42 WNW 10 17 30.03 1017 10 16.09344 0 0
10:53 am 10:53 Sunny 64 17.8 36 2.2 35 35 WNW 14 22 30.03 1017 10 16.09344 0 0
11:53 am 11:53 Sunny 70 21.1 36 2.2 29 29 WNW 13 20 30 1016 10 16.09344 0 0
12:53 pm 12:53 Sunny 73 22.8 35 1.7 25 25 W 15 24 29.97 1015 10 16.09344 0 0
1:53 pm 13:53 Mostly Sunny 74 23.3 35 1.7 24 24 VRB 3 6 29.94 1014 10 16.09344 0 0
2:53 pm 14:53 Partly Cloudy 76 24.4 35 1.7 23 23 WNW 14 22 29.91 1013 10 16.09344 0 0
3:53 pm 15:53 Mostly Sunny 78 25.6 36 2.2 22 22 WNW 9 15 29.88 1012 10 16.09344 0 0
4:53 pm 16:53 Mostly Sunny 78 25.6 35 1.7 21 21 W 8 13 29.85 1011 10 16.09344 0 0
5:53 pm 17:53 Sunny 77 25 35 1.7 22 22 W 10 17 29.85 1011 10 16.09344 0 0
6:53 pm 18:53 Sunny 74 23.3 35 1.7 24 24 NW 5 7 29.85 1011 10 16.09344 0 0
7:53 pm 19:53 Clear 66 18.9 33 0.6 29 29 Calm 29.85 1011 10 16.09344 0 0
8:53 pm 20:53 Clear 59 15 37 2.8 44 44 S 7 11 29.85 1011 10 16.09344 0 0
9:53 pm 21:53 Clear 53 11.7 35 1.7 51 51 ESE 5 7 29.85 1011 10 16.09344 0 0
10:53 pm 22:53 Clear 55 12.8 35 1.7 47 47 SSE 5 7 29.83 1010 10 16.09344 0 0
11:53 pm 23:53 Clear 51 10.6 34 1.1 52 52 SSE 6 9 29.8 1009 10 16.09344 0 0

Powered by AerisWeather